1498525200.87,64510,19.38,74002.3,4.31,-23.43,-23.89,0,*7B
1498525202.12,64511,19.38,73998.3,4.33,-23.95,-24.41,0,*70
1498525203.38,64512,19.38,73998.0,4.31,-24.11,-24.51,0,*7B
1498525204.58,64513,19.38,73998.5,4.33,-23.89,-24.35,0,*7C
1498525205.83,64514,19.38,74004.5,4.31,-23.89,-24.41,0,*7A
1498525207.05,64515,19.38,74008.8,4.31,-23.89,-24.35,0,*78
1498525208.25,64516,19.38,74014.0,4.33,-23.89,-24.35,0,*79
1498525209.48,64517,19.38,74000.8,4.33,-23.79,-24.25,0,*76
1498525210.74,64518,19.38,74002.3,4.31,-23.79,-24.25,0,*7B
1498525212.0,64519,19.38,73998.3,4.31,-23.79,-24.21,0,*7E
1498525213.23,64520,19.38,74002.3,4.33,-23.75,-24.25,0,*7E
1498525214.48,64521,19.38,73996.0,4.33,-23.65,-24.11,0,*79
1498525215.71,64522,19.38,73992.0,4.33,-23.79,-24.21,0,*74
1498525216.91,64523,19.38,73996.3,4.33,-23.39,-23.89,0,*74
1498525218.15,64524,19.38,73996.8,4.35,-23.23,-23.59,0,*73
1498525219.36,64525,19.38,73998.0,4.39,-23.39,-23.89,0,*78
1498525220.58,64526,19.38,74000.0,4.39,-23.89,-24.35,0,*70
1498525221.8,64527,19.38,74004.5,4.35,-23.89,-24.47,0,*78
1498525223.05,64528,19.38,74010.3,4.35,-24.15,-24.51,0,*72
1498525224.29,64529,19.38,74012.3,4.35,-24.15,-24.57,0,*75
1498525225.54,64530,19.38,74018.3,4.35,-23.99,-24.47,0,*7F
1498525226.79,64531,19.38,74016.8,4.39,-23.85,-24.31,0,*7E
1498525228.01,64532,19.38,74006.5,4.35,-23.89,-24.35,0,*79
1498525229.23,64533,19.38,74010.3,4.35,-24.05,-24.51,0,*79
1498525230.46,64534,19.38,74014.0,4.35,-24.05,-24.47,0,*79
1498525231.68,64535,19.38,74014.5,4.35,-23.75,-24.35,0,*7D
1498525232.93,64536,19.38,74014.3,4.35,-23.85,-24.35,0,*71
1498525234.15,64537,19.38,74014.3,4.35,-23.89,-24.35,0,*7C
1498525235.37,64538,19.38,74010.8,4.35,-23.89,-24.47,0,*76
1498525236.62,64539,19.38,74010.3,4.35,-23.99,-24.47,0,*76
1498525237.87,64540,19.38,74006.0,4.35,-23.99,-24.47,0,*78
1498525239.11,64541,19.38,74006.0,4.35,-24.15,-24.51,0,*7D
1498525240.36,64542,19.38,74010.5,4.35,-24.15,-24.57,0,*78
1498525241.56,64543,19.38,74014.5,4.33,-24.05,-24.51,0,*78
1498525242.79,64544,19.38,74020.3,4.33,-24.11,-24.51,0,*7A
1498525243.99,64545,19.38,74020.3,4.33,-24.05,-24.35,0,*7C
1498525245.21,64546,19.38,74022.0,4.35,-24.05,-24.35,0,*79
1498525246.44,64547,19.38,74022.0,4.35,-24.05,-24.31,0,*7C
1498525247.66,64548,19.38,74018.5,4.35,-24.05,-24.31,0,*73
1498525248.93,64549,19.38,74020.0,4.35,-23.99,-24.15,0,*76
1498525250.2,64550,19.38,74024.5,4.35,-23.99,-23.99,0,*7D
1498525251.44,64551,19.38,74024.5,4.33,-24.05,-24.21,0,*7C
1498525252.66,64552,19.38,74026.3,4.33,-24.05,-24.11,0,*7C
1498525253.89,64553,19.38,74028.8,4.31,-24.05,-24.05,0,*7A
1498525255.12,64554,19.38,74030.0,4.33,-24.05,-23.95,0,*71
1498525256.34,64555,19.38,74030.0,4.33,-23.95,-23.89,0,*73
1498525257.56,64556,19.38,74030.5,4.33,-23.89,-23.95,0,*70
1498525258.78,64557,19.38,74030.5,4.33,-23.79,-24.11,0,*75
1498525260.01,64558,19.38,74028.3,4.33,-23.89,-24.25,0,*72
1498525261.24,64559,19.38,74026.5,4.33,-23.89,-24.41,0,*71
1498525262.49,64560,19.38,74024.0,4.31,-23.79,-24.41,0,*76
1498525263.72,64561,19.38,74024.5,4.33,-23.89,-24.41,0,*7A
1498525264.93,64562,19.38,74030.3,4.33,-24.05,-24.61,0,*78
1498525266.15,64563,19.38,74028.0,4.33,-23.89,-24.41,0,*78
1498525267.41,64564,19.38,74028.5,4.31,-23.75,-24.41,0,*7E
1498525268.66,64565,19.38,74026.5,4.31,-23.79,-24.41,0,*73
1498525269.89,64566,19.38,74024.5,4.33,-23.95,-24.57,0,*77
1498525271.09,64567,19.38,74024.5,4.33,-23.89,-24.57,0,*7B
1498525272.29,64568,19.38,74022.0,4.33,-23.89,-24.57,0,*74
1498525273.52,64569,19.38,74024.3,4.33,-23.95,-24.57,0,*78
1498525274.72,64570,19.38,74026.3,4.33,-23.89,-24.51,0,*7B
1498525275.92,64571,19.38,74022.0,4.33,-23.89,-24.51,0,*7A
1498525277.15,64572,19.38,74020.8,4.33,-23.95,-24.51,0,*74
1498525278.37,64573,19.38,74022.5,4.31,-23.79,-24.35,0,*77
1498525279.57,64574,19.38,74024.0,4.33,-23.79,-24.35,0,*72
1498525280.8,64575,19.38,74020.0,4.31,-23.89,-24.51,0,*7C
1498525282.06,64576,19.38,74016.5,4.31,-24.11,-24.57,0,*7F
1498525283.29,64577,19.38,74012.5,4.31,-24.05,-24.57,0,*7B
1498525284.51,64578,19.38,74014.5,4.33,-24.11,-24.51,0,*75
1498525285.77,64579,19.38,74016.5,4.31,-23.95,-24.51,0,*7D
1498525287.05,64580,19.38,74018.0,4.31,-23.95,-24.41,0,*7A
1498525288.28,64581,19.38,74014.0,4.33,-23.89,-24.25,0,*76
1498525289.51,64582,19.38,74018.0,4.33,-23.79,-24.25,0,*7A
1498525290.73,64583,19.38,74020.5,4.33,-23.59,-24.11,0,*7E
1498525291.98,64584,19.38,74010.5,4.31,-23.79,-24.41,0,*7C
1498525293.24,64585,19.38,74014.5,4.31,-23.79,-24.41,0,*7D
1498525294.49,64586,19.38,74018.8,4.31,-23.79,-24.41,0,*7E
1498525295.72,64587,19.38,74018.8,4.33,-23.65,-24.05,0,*70
1498525296.95,64588,19.38,74016.0,4.33,-23.75,-24.25,0,*7C
1498525298.21,64589,19.38,74012.0,4.31,-23.89,-24.41,0,*7E
1498525299.43,64590,19.38,74012.3,4.33,-23.89,-24.41,0,*74
1498525300.66,64591,19.38,74016.0,4.33,-23.89,-24.41,0,*75
1498525301.88,64592,19.38,74020.8,4.33,-23.75,-24.11,0,*70
1498525303.09,64593,19.38,74018.3,4.33,-23.75,-24.35,0,*77
1498525304.33,64594,19.38,74004.3,4.35,-23.85,-24.35,0,*79
1498525305.58,64595,19.38,74012.5,4.35,-23.85,-24.47,0,*7D
1498525306.81,64596,19.38,74008.8,4.35,-24.05,-24.47,0,*71
1498525308.05,64597,19.38,74008.0,4.35,-24.05,-24.67,0,*72
1498525309.33,64598,19.38,74008.3,4.35,-24.21,-24.67,0,*7B
1498525310.61,64599,19.38,74012.0,4.35,-24.21,-24.71,0,*7D
1498525311.87,64600,19.38,74008.3,4.35,-24.15,-24.67,0,*7E
1498525313.16,64601,19.38,74012.3,4.31,-24.11,-24.71,0,*78
1498525314.42,64602,19.38,74014.5,4.31,-24.21,-24.77,0,*7E
1498525315.68,64603,19.38,74016.8,4.33,-24.21,-24.71,0,*7B
1498525316.92,64604,19.38,74018.3,4.33,-24.25,-24.93,0,*74
1498525318.2,64605,19.38,74020.3,4.31,-24.21,-24.71,0,*7F
1498525319.47,64606,19.38,74026.0,4.33,-24.25,-24.71,0,*7A
1498525320.73,64607,19.38,74022.3,4.33,-24.25,-24.87,0,*72
1498525321.98,64608,19.38,74022.0,4.31,-24.35,-24.87,0,*7E
1498525323.22,64609,19.38,74024.0,4.31,-24.35,-24.77,0,*70
1498525324.47,64610,19.38,74020.8,4.31,-24.11,-24.61,0,*79
1498525325.73,64611,19.38,74020.8,4.31,-23.95,-24.51,0,*70
1498525326.96,64612,19.38,74024.3,4.31,-23.89,-24.51,0,*7E
1498525328.18,64613,19.38,74024.0,4.31,-23.89,-24.51,0,*7F
1498525329.44,64614,19.38,74024.5,4.33,-23.95,-24.41,0,*76
1498525330.66,64615,19.38,74024.8,4.33,-23.95,-24.57,0,*70
1498525331.9,64616,19.38,74024.5,4.31,-24.05,-24.61,0,*7A
1498525333.13,64617,19.38,74022.8,4.29,-24.25,-24.77,0,*77
1498525334.37,64618,19.38,74018.3,4.29,-24.21,-24.77,0,*7C
1498525335.6,64619,19.38,74018.8,4.31,-24.35,-24.93,0,*7B
1498525336.83,64620,19.38,74020.5,4.33,-24.21,-24.77,0,*7C
1498525338.12,64621,19.38,74020.8,4.31,-24.21,-24.71,0,*79
1498525339.36,64622,19.38,74022.3,4.29,-24.31,-24.83,0,*7F
1498525340.56,64623,19.38,74024.8,4.29,-24.31,-24.93,0,*7F
1498525341.78,64624,19.38,74020.0,4.27,-24.31,-24.67,0,*7D
1498525342.98,64625,19.38,74018.3,4.27,-24.35,-24.97,0,*77
1498525344.18,64626,19.38,74016.8,4.27,-24.35,-24.97,0,*74
1498525345.44,64627,19.38,74014.8,4.29,-24.41,-24.83,0,*7D
1498525346.66,64628,19.38,74018.0,4.27,-24.47,-24.87,0,*7E
1498525347.89,64629,19.38,74008.3,4.27,-24.35,-24.87,0,*7A
1498525349.13,64630,19.38,74010.5,4.27,-24.21,-24.67,0,*79
1498525350.35,64631,19.38,74022.3,4.27,-24.05,-24.67,0,*7E
1498525351.59,64632,19.38,74024.0,4.27,-24.15,-24.71,0,*7B
1498525352.84,64633,19.38,74020.0,4.29,-24.15,-24.67,0,*73
1498525354.09,64634,19.38,74020.0,4.27,-24.21,-24.67,0,*7D
1498525355.31,64635,19.38,74022.3,4.27,-24.05,-24.67,0,*7A
1498525356.55,64636,19.38,74022.8,4.27,-24.21,-24.83,0,*75
1498525357.81,64637,19.38,74022.0,4.27,-24.21,-24.87,0,*70
1498525359.03,64638,19.38,74018.8,4.27,-23.99,-24.61,0,*73
1498525360.25,64639,19.38,74026.5,4.25,-23.75,-24.35,0,*73
1498525361.49,64640,19.38,74024.3,4.25,-23.85,-24.47,0,*77
1498525362.71,64641,19.38,74020.5,4.27,-23.85,-24.51,0,*73
1498525363.91,64642,19.38,74024.5,4.27,-24.05,-24.51,0,*7F
1498525365.14,64643,19.38,74022.8,4.29,-24.11,-24.77,0,*71
1498525366.38,64644,19.38,74024.3,4.27,-24.15,-24.67,0,*7D
1498525367.6,64645,19.38,74018.5,4.27,-23.99,-24.61,0,*79
1498525368.85,64646,19.38,74016.8,4.27,-24.15,-24.71,0,*78
1498525370.09,64647,19.38,74014.8,4.27,-23.99,-24.67,0,*7D
1498525371.31,64648,19.38,74018.3,4.29,-23.95,-24.57,0,*73
1498525372.53,64649,19.38,74016.8,4.27,-24.05,-24.67,0,*71
1498525373.77,64650,19.38,74022.8,4.27,-24.15,-24.67,0,*78
1498525375.04,64651,19.38,74016.8,4.25,-23.99,-24.67,0,*78
1498525376.29,64652,19.38,74028.0,4.25,-23.99,-24.61,0,*7D
1498525377.54,64653,19.38,74024.0,4.27,-24.21,-24.71,0,*7B
1498525378.79,64654,19.38,74026.8,4.27,-24.21,-24.71,0,*7C
1498525380.04,64655,19.38,74028.5,4.25,-24.05,-24.67,0,*7E
1498525381.26,64656,19.38,74024.0,4.25,-23.89,-24.51,0,*7B
1498525382.48,64657,19.38,74028.5,4.25,-23.75,-24.35,0,*7B
1498525383.69,64658,19.38,74020.0,4.27,-23.69,-24.31,0,*7F
1498525384.91,64659,19.38,74020.0,4.27,-23.49,-24.05,0,*7B
1498525386.18,64660,19.38,74022.8,4.25,-23.65,-24.15,0,*7C
1498525387.41,64661,19.38,74024.0,4.25,-23.69,-24.31,0,*77
1498525388.63,64662,19.38,74026.8,4.27,-23.99,-24.51,0,*7F
1498525389.83,64663,19.38,74024.8,4.27,-24.05,-24.61,0,*7F
1498525391.05,64664,19.38,74018.8,4.27,-23.99,-24.61,0,*7A
1498525392.27,64665,19.38,74020.0,4.27,-23.99,-24.61,0,*7B
1498525393.52,64666,19.38,74022.3,4.27,-24.15,-24.83,0,*77
1498525394.75,64667,19.38,74020.3,4.27,-24.15,-24.67,0,*7C
1498525396.0,64668,19.38,74016.5,4.25,-23.99,-24.61,0,*74
1498525397.25,64669,19.38,74018.3,4.25,-24.05,-24.67,0,*71
1498525398.49,64670,19.38,74022.8,4.27,-24.15,-24.67,0,*7A
1498525399.73,64671,19.38,74022.8,4.25,-24.15,-24.61,0,*7F
1498525400.98,64672,19.38,74024.8,4.25,-23.99,-24.47,0,*7B
1498525402.22,64673,19.38,74030.5,4.25,-23.99,-24.31,0,*7B
1498525403.48,64674,19.38,74034.3,4.25,-23.89,-24.21,0,*7C
1498525404.7,64675,19.38,74026.3,4.25,-23.89,-24.31,0,*7C
1498525405.94,64676,19.38,74024.8,4.25,-23.85,-24.05,0,*74
1498525407.15,64677,19.38,74022.8,4.27,-23.85,-23.89,0,*74
1498525408.38,64678,19.38,74026.0,4.27,-23.89,-23.85,0,*7B
1498525409.61,64679,19.38,74024.5,4.27,-23.69,-23.65,0,*7A
1498525410.86,64680,19.38,74016.3,4.27,-23.53,-23.49,0,*7B
1498525412.07,64681,19.38,74016.8,4.27,-23.39,-23.33,0,*7B
1498525413.31,64682,19.38,74020.3,4.27,-23.85,-23.53,0,*79
1498525414.54,64683,19.38,74016.5,4.29,-23.79,-23.49,0,*7E
1498525415.77,64684,19.38,74012.5,4.29,-23.79,-23.49,0,*79
1498525417.0,64685,19.38,74012.0,4.29,-23.85,-23.59,0,*7A
1498525418.23,64686,19.38,74012.0,4.27,-23.85,-23.69,0,*74
1498525419.48,64687,19.38,74014.0,4.29,-23.69,-23.85,0,*7B
1498525420.73,64688,19.38,74018.3,4.29,-23.65,-23.99,0,*75
1498525421.98,64689,19.38,74016.5,4.29,-23.49,-24.11,0,*7D
1498525423.22,64690,19.38,74014.0,4.29,-23.33,-24.15,0,*7C
1498525424.45,64691,19.38,74014.3,4.29,-23.33,-24.31,0,*7B
1498525425.66,64692,19.38,74012.5,4.29,-23.13,-24.31,0,*7A
1498525426.88,64693,19.38,74012.3,4.29,-23.19,-24.47,0,*70
1498525428.09,64694,19.38,74014.0,4.29,-23.13,-24.47,0,*7D
1498525429.31,64695,19.38,74016.5,4.27,-23.29,-24.47,0,*7B
1498525430.54,64696,19.38,74012.3,4.29,-23.19,-24.47,0,*75
1498525431.76,64697,19.38,74010.5,4.29,-23.29,-24.47,0,*77
1498525433.01,64698,19.38,74008.8,4.29,-23.29,-24.41,0,*7E
1498525434.29,64699,19.38,74006.8,4.31,-23.29,-24.41,0,*76
1498525435.57,64700,19.38,74010.5,4.31,-23.29,-24.41,0,*77
1498525436.83,64701,19.38,74010.5,4.31,-23.43,-24.41,0,*7A
1498525438.08,64702,19.38,74010.3,4.31,-23.59,-24.41,0,*72
1498525439.31,64703,19.38,74014.3,4.31,-23.79,-24.61,0,*73
1498525440.56,64704,19.38,74016.5,4.29,-23.85,-24.67,0,*78
1498525441.81,64705,19.38,74016.5,4.29,-23.99,-24.67,0,*74
1498525443.04,64706,19.38,74020.3,4.31,-23.89,-24.61,0,*79
1498525444.29,64707,19.38,74018.3,4.31,-23.95,-24.61,0,*75
1498525445.54,64708,19.38,74024.0,4.29,-23.99,-24.67,0,*79
1498525446.77,64709,19.38,74024.3,4.29,-23.99,-24.61,0,*7E
1498525448.0,64710,19.38,74026.3,4.29,-23.95,-24.57,0,*7F
1498525449.23,64711,19.38,74024.5,4.29,-23.95,-24.57,0,*7E
1498525450.45,64712,19.38,74024.0,4.29,-23.95,-24.57,0,*7D
1498525451.68,64713,19.38,74024.0,4.29,-23.95,-24.57,0,*7C
1498525452.91,64714,19.38,74026.8,4.29,-23.99,-24.57,0,*77
1498525454.14,64715,19.38,74026.8,4.29,-23.95,-24.47,0,*7B
1498525455.36,64716,19.38,74022.0,4.29,-24.15,-24.57,0,*76
1498525456.59,64717,19.38,74022.8,4.29,-24.11,-24.57,0,*73
1498525457.81,64718,19.38,74020.5,4.27,-24.15,-24.61,0,*73
1498525459.01,64719,19.38,74020.3,4.27,-24.05,-24.47,0,*77
1498525460.21,64720,19.38,74018.0,4.29,-24.05,-24.35,0,*76
1498525461.42,64721,19.38,74022.8,4.27,-24.11,-24.35,0,*7C
1498525462.67,64722,19.38,74018.8,4.29,-24.11,-24.15,0,*73
1498525463.87,64723,19.38,74020.3,4.27,-24.05,-24.05,0,*78
1498525465.09,64724,19.38,74022.8,4.27,-24.05,-23.99,0,*7D
1498525466.31,64725,19.38,74022.8,4.27,-23.95,-23.75,0,*70
1498525467.55,64726,19.38,74022.8,4.27,-23.99,-23.65,0,*7E
1498525468.77,64727,19.38,74024.5,4.27,-23.89,-23.53,0,*7B
1498525470.01,64728,19.38,74024.0,4.25,-23.89,-23.49,0,*7D
1498525471.23,64729,19.38,74026.0,4.27,-23.85,-23.39,0,*75
1498525472.46,64730,19.38,74024.8,4.29,-23.79,-23.33,0,*7A
1498525473.69,64731,19.38,74026.3,4.27,-23.69,-23.33,0,*74
1498525474.94,64732,19.38,74024.5,4.27,-23.65,-23.33,0,*7B
1498525476.18,64733,19.38,74024.8,4.27,-23.53,-23.33,0,*7F
1498525477.4,64734,19.38,74026.3,4.27,-23.59,-23.33,0,*72
1498525478.65,64735,19.38,74022.3,4.27,-23.65,-23.49,0,*71
1498525479.86,64736,19.38,74024.5,4.27,-23.39,-23.49,0,*7B
1498525481.11,64737,19.38,74026.8,4.29,-23.23,-23.49,0,*7F
1498525482.36,64738,19.38,74022.3,4.27,-23.03,-23.49,0,*7C
1498525483.58,64739,19.38,74022.3,4.27,-22.93,-23.49,0,*75
1498525484.79,64740,19.38,74020.3,4.27,-22.87,-23.49,0,*7E
1498525485.99,64741,19.38,74018.3,4.27,-22.93,-23.75,0,*75
1498525487.21,64742,19.38,74014.5,4.27,-23.23,-24.31,0,*7B
1498525488.4,64743,19.38,74006.5,4.27,-23.39,-24.51,0,*77
1498525489.62,64744,19.38,74008.0,4.27,-23.65,-24.61,0,*7A
1498525490.82,64745,19.38,74008.8,4.27,-23.75,-24.61,0,*7A
1498525492.03,64746,19.38,74006.3,4.27,-23.69,-24.51,0,*77
1498525493.25,64747,19.31,74004.5,4.27,-23.65,-24.31,0,*7C
1498525494.5,64748,19.31,74008.3,4.31,-23.59,-24.25,0,*7E
1498525495.72,64749,19.38,74008.5,4.27,-23.99,-24.51,0,*77
1498525496.92,64750,19.38,74008.8,4.27,-24.05,-24.61,0,*7E
1498525498.15,64751,19.38,74008.3,4.29,-23.99,-24.57,0,*76
1498525499.4,64752,19.38,74008.8,4.29,-23.99,-24.67,0,*76
1498525500.64,64753,19.38,74010.0,4.27,-24.15,-24.71,0,*7D
1498525501.88,64754,19.38,74010.3,4.27,-24.15,-24.67,0,*7D
1498525503.11,64755,19.38,74004.8,4.29,-23.95,-24.57,0,*7E
1498525504.36,64756,19.38,74008.8,4.27,-24.15,-24.71,0,*78
1498525505.6,64757,19.38,74010.3,4.27,-24.21,-24.83,0,*73
1498525506.81,64758,19.38,74008.8,4.27,-24.47,-24.97,0,*79
1498525508.03,64759,19.38,74012.8,4.27,-24.31,-24.83,0,*7C
1498525509.23,64760,19.38,74010.8,4.27,-24.47,-24.97,0,*72
1498525510.46,64761,19.38,74010.5,4.27,-24.47,-24.87,0,*72
1498525511.66,64762,19.38,74008.8,4.27,-24.35,-24.97,0,*75
1498525512.9,64763,19.38,74010.5,4.27,-24.15,-24.83,0,*73
1498525514.15,64764,19.38,74014.8,4.25,-24.31,-24.87,0,*74
1498525515.35,64765,19.31,74012.0,4.27,-24.47,-24.97,0,*77
1498525516.58,64766,19.38,74014.5,4.25,-24.51,-24.97,0,*71
1498525517.81,64767,19.38,74014.0,4.25,-24.51,-25.13,0,*7D
1498525519.06,64768,19.38,74012.3,4.25,-24.47,-25.03,0,*74
1498525520.26,64769,19.31,74008.3,4.23,-24.57,-25.19,0,*79
1498525521.49,64770,19.38,74006.3,4.27,-24.51,-25.03,0,*78
1498525522.69,64771,19.38,74008.5,4.23,-24.57,-25.19,0,*70
1498525523.88,64772,19.38,74006.0,4.23,-24.57,-25.19,0,*73
1498525525.09,64773,19.31,74010.0,4.23,-24.57,-25.09,0,*73
1498525526.32,64774,19.38,74014.8,4.23,-24.41,-25.09,0,*73
1498525527.58,64775,19.38,74004.0,4.21,-24.41,-25.09,0,*70
1498525528.81,64776,19.38,73998.0,4.23,-24.41,-25.09,0,*71
1498525530.07,64777,19.38,74002.3,4.25,-24.31,-24.87,0,*76
1498525531.34,64778,19.38,74000.8,4.25,-24.15,-24.87,0,*7F
1498525532.62,64779,19.38,74004.5,4.21,-24.25,-25.03,0,*74
1498525533.89,64780,19.38,74002.8,4.25,-23.99,-24.83,0,*7F
1498525535.14,64781,19.38,74002.0,4.21,-23.89,-24.67,0,*71
1498525536.36,64782,19.38,74004.0,4.23,-23.95,-24.77,0,*7C
1498525537.58,64783,19.38,74010.8,4.23,-23.95,-24.77,0,*7D
1498525538.81,64784,19.38,74014.0,4.23,-23.95,-24.77,0,*7A
1498525540.03,64785,19.38,74012.3,4.19,-24.15,-24.93,0,*77
1498525541.25,64786,19.38,74018.3,4.25,-24.05,-24.97,0,*7E
1498525542.53,64787,19.38,74018.0,4.21,-24.11,-24.87,0,*7F
1498525543.78,64788,19.38,74022.8,4.21,-24.21,-24.93,0,*76
1498525545.03,64789,19.38,74024.3,4.21,-24.11,-24.77,0,*7E
1498525546.29,64790,19.38,74028.0,4.25,-24.05,-24.71,0,*71
1498525547.53,64791,19.38,74032.0,4.23,-24.11,-24.87,0,*7A
1498525548.81,64792,19.38,74028.3,4.21,-23.95,-24.67,0,*7E
1498525550.02,64793,19.31,74026.5,4.19,-23.69,-24.47,0,*75
1498525551.27,64794,19.38,74024.8,4.21,-24.05,-24.67,0,*76
1498525552.5,64795,19.38,74024.3,4.21,-23.75,-24.35,0,*70
1498525553.73,64796,19.38,74020.5,4.21,-23.39,-23.95,0,*76
1498525554.98,64797,19.38,74024.8,4.21,-23.23,-23.89,0,*71
1498525556.2,64798,19.31,74024.8,4.21,-23.43,-24.05,0,*7B
1498525557.43,64799,19.38,74024.8,4.23,-23.29,-24.05,0,*74
1498525558.67,64800,19.38,74022.3,4.25,-23.85,-24.35,0,*78
1498525559.89,64801,19.38,74012.5,4.25,-23.89,-24.61,0,*74
1498525561.13,64802,19.31,74012.0,4.25,-23.69,-24.31,0,*7C
1498525562.34,64803,19.31,74014.3,4.27,-23.69,-24.31,0,*7F
1498525563.59,64804,19.31,74012.8,4.25,-23.49,-24.05,0,*7F
1498525564.83,64805,19.38,74020.5,4.25,-23.85,-24.47,0,*78
1498525566.06,64806,19.31,74014.5,4.25,-24.05,-24.51,0,*73
1498525567.31,64807,19.38,74016.3,4.25,-24.05,-24.71,0,*70
1498525568.53,64808,19.31,74018.3,4.27,-23.99,-24.61,0,*7E
1498525569.75,64809,19.38,74020.0,4.27,-24.05,-24.67,0,*7B
1498525570.98,64810,19.38,74022.3,4.27,-24.15,-24.67,0,*72
1498525572.21,64811,19.38,74022.8,4.27,-24.31,-24.83,0,*7F
1498525573.41,64812,19.38,74016.0,4.27,-24.35,-24.97,0,*7D
1498525574.63,64813,19.38,74016.5,4.25,-24.35,-25.13,0,*73
1498525575.89,64814,19.38,74018.0,4.25,-24.47,-25.03,0,*70
1498525577.14,64815,19.38,74012.3,4.25,-24.35,-25.03,0,*74
1498525578.35,64816,19.31,74014.5,4.23,-24.51,-25.09,0,*79
1498525579.6,64817,19.31,74012.8,4.23,-24.41,-25.03,0,*73
1498525580.83,64818,19.38,74012.5,4.25,-24.35,-24.97,0,*75
1498525582.05,64819,19.38,74016.3,4.23,-24.41,-24.77,0,*7F
1498525583.28,64820,19.31,74012.8,4.23,-24.35,-24.87,0,*79
1498525584.51,64821,19.38,74018.5,4.23,-24.35,-24.87,0,*78
1498525585.76,64822,19.38,74022.0,4.25,-24.31,-24.87,0,*79
1498525587.02,64823,19.38,74022.3,4.23,-24.21,-24.71,0,*76
1498525588.28,64824,19.31,74020.5,4.23,-24.25,-24.71,0,*75
1498525589.54,64825,19.31,74022.3,4.25,-24.15,-24.67,0,*76
1498525590.76,64826,19.38,74018.5,4.25,-24.05,-24.61,0,*72
1498525591.99,64827,19.31,74016.0,4.23,-24.05,-24.71,0,*74
1498525593.24,64828,19.31,74018.0,4.23,-24.11,-24.67,0,*79
1498525594.48,64829,19.38,74016.3,4.25,-23.99,-24.51,0,*7C
1498525595.73,64830,19.38,74020.8,4.25,-23.99,-24.57,0,*72
1498525596.98,64831,19.38,74020.3,4.25,-23.99,-24.47,0,*72
1498525598.18,64832,19.38,74014.0,4.23,-24.05,-24.57,0,*74
1498525599.43,64833,19.31,74008.3,4.25,-24.21,-24.77,0,*77
1498525600.67,64834,19.38,74012.3,4.25,-23.85,-24.31,0,*7B
1498525601.87,64835,19.31,74008.0,4.27,-23.75,-24.31,0,*77
1498525603.11,64836,19.38,74004.3,4.25,-23.85,-24.35,0,*7D
1498525604.33,64837,19.38,74002.8,4.25,-23.89,-24.35,0,*70
1498525605.55,64838,19.38,74004.5,4.25,-23.89,-24.47,0,*7A
1498525606.75,64839,19.38,74004.0,4.27,-23.89,-24.51,0,*7E
1498525607.96,64840,19.38,74004.3,4.27,-24.05,-24.67,0,*76
1498525609.2,64841,19.38,74000.8,4.27,-24.15,-24.67,0,*76
1498525610.42,64842,19.38,74004.0,4.27,-24.35,-24.83,0,*7D
1498525611.65,64843,19.38,74010.8,4.25,-24.47,-24.97,0,*7E
1498525612.9,64844,19.38,74012.0,4.25,-24.47,-24.87,0,*78
1498525614.16,64845,19.31,74014.0,4.25,-24.31,-24.71,0,*71
1498525615.38,64846,19.38,74016.0,4.27,-23.99,-24.47,0,*70
1498525616.58,64847,19.31,74014.5,4.27,-24.05,-24.61,0,*77
1498525617.8,64848,19.38,74018.5,4.27,-24.35,-24.83,0,*77
1498525619.0,64849,19.31,74014.8,4.27,-24.51,-24.97,0,*71
1498525620.23,64850,19.31,74012.8,4.25,-24.51,-24.97,0,*7B
1498525621.43,64851,19.31,74014.3,4.23,-24.51,-24.93,0,*78
1498525622.66,64852,19.38,74012.3,4.27,-24.31,-24.71,0,*75
1498525623.88,64853,19.31,74014.0,4.25,-24.05,-24.61,0,*70
1498525625.14,64854,19.31,74012.0,4.25,-24.21,-24.61,0,*71
1498525626.38,64855,19.31,74012.8,4.25,-23.99,-24.51,0,*77
1498525627.6,64856,19.38,74022.0,4.27,-24.31,-24.67,0,*76
1498525628.85,64857,19.31,74018.5,4.25,-24.05,-24.67,0,*72
1498525630.11,64858,19.31,74022.0,4.23,-24.21,-24.71,0,*7A
1498525631.36,64859,19.31,74016.3,4.23,-24.21,-24.71,0,*7B
1498525632.63,64860,19.38,74020.3,4.25,-24.21,-24.67,0,*70
1498525633.88,64861,19.38,74016.8,4.25,-24.35,-24.83,0,*7E
1498525635.08,64862,19.31,74014.0,4.23,-24.57,-24.93,0,*7E
1498525636.33,64863,19.31,74014.5,4.25,-24.47,-24.87,0,*7D
1498525637.54,64864,19.38,74018.8,4.23,-24.57,-25.09,0,*7A
1498525638.77,64865,19.31,74014.0,4.23,-24.51,-25.03,0,*77
1498525640.0,64866,19.31,74012.5,4.23,-24.67,-25.09,0,*7B
1498525641.22,64867,19.38,74014.8,4.25,-24.61,-24.97,0,*7C
1498525642.45,64868,19.38,74012.8,4.23,-24.51,-25.03,0,*7A
1498525643.64,64869,19.31,74018.3,4.23,-24.57,-24.97,0,*71
1498525644.9,64870,19.31,74022.0,4.21,-24.41,-24.93,0,*78
1498525646.1,64871,19.38,74024.5,4.23,-24.35,-24.77,0,*72
1498525647.33,64872,19.38,74022.3,4.23,-24.21,-24.57,0,*76
1498525648.58,64873,19.31,74018.3,4.23,-24.25,-24.67,0,*70
1498525649.83,64874,19.38,74020.5,4.21,-24.41,-24.77,0,*76
1498525651.04,64875,19.31,74020.8,4.23,-24.35,-24.77,0,*76
1498525652.27,64876,19.38,74024.8,4.23,-24.25,-24.77,0,*74
1498525653.52,64877,19.38,74024.5,4.25,-24.35,-24.87,0,*7D
1498525654.77,64878,19.38,74022.3,4.21,-24.35,-24.87,0,*76
1498525656.05,64879,19.31,74022.8,4.21,-24.41,-25.03,0,*79
1498525657.28,64880,19.38,74022.3,4.19,-24.51,-25.03,0,*75
1498525658.53,64881,19.31,74016.5,4.19,-24.15,-24.71,0,*70
1498525659.73,64882,19.31,74016.3,4.23,-24.35,-24.77,0,*7E
1498525660.96,64883,19.31,74018.3,4.21,-24.35,-24.77,0,*7D
1498525662.24,64884,19.31,74024.3,4.21,-24.41,-25.03,0,*7B
1498525663.5,64885,19.38,74030.3,4.19,-24.41,-24.87,0,*7C
1498525664.73,64886,19.31,74026.0,4.21,-24.35,-24.77,0,*78
1498525665.96,64887,19.31,74020.0,4.19,-24.31,-24.83,0,*7D
1498525667.21,64888,19.38,74024.0,4.19,-24.25,-24.83,0,*77
1498525668.44,64889,19.38,74028.5,4.23,-24.25,-24.77,0,*74
1498525669.64,64890,19.31,74038.3,4.19,-24.31,-24.93,0,*7A
1498525670.87,64891,19.38,74042.5,4.19,-24.35,-24.87,0,*7A
1498525672.09,64892,19.31,74036.0,4.19,-24.11,-24.57,0,*72
1498525673.34,64893,19.38,74040.8,4.19,-23.95,-24.41,0,*7F
1498525674.56,64894,19.31,74038.5,4.19,-23.85,-24.47,0,*7F
1498525675.81,64895,19.31,74032.8,4.19,-24.15,-24.71,0,*75
1498525677.04,64896,19.31,74028.8,4.21,-23.89,-24.51,0,*7D
1498525678.23,64897,19.31,74024.3,4.19,-24.05,-24.57,0,*72
1498525679.48,64898,19.38,74024.0,4.21,-24.11,-24.57,0,*73
1498525680.77,64899,19.31,74018.5,4.21,-24.21,-24.71,0,*75
1498525681.97,64900,19.31,74014.8,4.19,-24.31,-24.93,0,*72
1498525683.25,64901,19.31,74018.8,4.21,-24.21,-24.67,0,*72
1498525684.51,64902,19.38,74016.8,4.21,-24.41,-25.09,0,*7E
1498525685.73,64903,19.38,74016.8,4.23,-24.41,-24.93,0,*7F
1498525686.96,64904,19.31,74018.5,4.19,-24.41,-24.97,0,*75
1498525688.19,64905,19.31,74018.0,4.21,-24.35,-24.77,0,*72
1498525689.44,64906,19.31,74020.8,4.19,-24.25,-24.83,0,*70
1498525690.72,64907,19.38,74022.0,4.21,-24.11,-24.71,0,*70
1498525692.0,64908,19.31,74018.3,4.21,-24.11,-24.71,0,*7F
1498525693.25,64909,19.31,74024.8,4.19,-24.11,-24.71,0,*75
1498525694.5,64910,19.38,74018.8,4.21,-24.05,-24.67,0,*74
1498525695.76,64911,19.31,74018.0,4.21,-24.21,-24.77,0,*72
1498525697.02,64912,19.38,74020.3,4.19,-24.25,-24.71,0,*78
1498525698.24,64913,19.31,74014.5,4.19,-24.41,-24.93,0,*77
1498525699.5,64914,19.31,74020.3,4.21,-24.51,-25.03,0,*72
1498525700.75,64915,19.38,74022.0,4.21,-24.57,-25.03,0,*75
1498525701.95,64916,19.31,74026.0,4.19,-24.57,-25.13,0,*7C